Regional Weather Roundup
Issued by NWS

Home | Current Version | Previous Version | Graphics & Text | Print | Product List | Glossary On
Versions: 1 2 3 4 5 6 7 8 9 10 11 12 13 14 15 16 17 18 19 20 21 22 23 24 25 26 27 28 29 30 31 32 33 34 35 36 37 38 39 40 41 42 43 44 45 46 47 48 49 50
000
ASUS44 KMEG 031600
RWRTN
TENNESSEE HOURLY STATE WEATHER ROUNDUP
NATIONAL WEATHER SERVICE MEMPHIS TN
1100 AM CDT FRI JUL 03 2015

TNZ002-004-019-021-049-052-054-088>092-031700-
WEST TENNESSEE

CITY           SKY/WX    TMP DP  RH WIND       PRES   REMARKS
MEMPHIS INTL   LGT RAIN  74  71  91 CALM      29.94F FOG
NWS MEMPHIS      N/A     73 N/A N/A MISG        N/A
JACKSON        CLOUDY    75  70  84 SW9       29.93F
DYERSBURG        N/A    N/A N/A N/A MISG        N/A
PARIS          CLOUDY    73  68  83 SW9       29.93F
LEXINGTON      CLOUDY    77  72  83 SW12      29.94S
$$

TNZ008-025-027-028-033-062-065-066-031700-
NORTH MIDDLE TENNESSEE

CITY           SKY/WX    TMP DP  RH WIND       PRES   REMARKS
NASHVILLE      CLOUDY    77  70  79 W7        29.92R
CLARKSVILLE    CLOUDY    75  70  84 W7        29.91R
COOKEVILLE       N/A     81  72  74 SW12      29.94R
CROSSVILLE     PTSUNNY   74  65  73 W15G21    29.98R
$$

TNZ061-075-076-078-094-096-097-031700-
SOUTH MIDDLE TENNESSEE

CITY           SKY/WX    TMP DP  RH WIND       PRES   REMARKS
FAYETTEVILLE   CLOUDY    70  70 100 W15       29.98S
TULLAHOMA      CLOUDY    68  66  94 CALM      29.97S VSB 3/4
WINCHESTER     CLOUDY    70  70 100 SW5       29.98F
SHELBYVILLE    CLOUDY    72  72 100 SW8         N/A  VSB 3/4
$$

TNZ017-018-042-046-047-031700-
NORTHEAST TENNESSEE

CITY           SKY/WX    TMP DP  RH WIND       PRES   REMARKS
TRI CITIES     CLOUDY    79  68  69 SW9       29.94F
ELIZABETHTON   MOSUNNY   75  66  73 CALM      29.95F
$$

TNZ012-013-036-069-073-074-031700-
CENTRAL EAST TENNESSEE

CITY           SKY/WX    TMP DP  RH WIND       PRES   REMARKS
KNOXVILLE      CLOUDY    75  72  90 S13       29.93R
OAK RIDGE      LGT RAIN  76  71  85 VRB5      29.94R
GATLINBURG     PTSUNNY   73  70  88 W3        29.93R
$$

TNZ083-085-099-031700-
SOUTHEAST TENNESSEE

CITY           SKY/WX    TMP DP  RH WIND       PRES   REMARKS
CHATTANOOGA    RAIN      72  68  87 SW14      29.99S FOG
$$

SKY/WX REPORTED AS FAIR MEANS FEW OR NO CLOUDS BELOW
12 THOUSAND FEET.



USA.gov is the U.S. government's official web portal to all federal, state and local government web resources and services.